Regional Weather Roundup
Issued by NWS Cleveland, OH

Home | Current Version | Previous Version | Text Only | Print | Product List | Glossary On
Versions: 1 2 3 4 5 6 7 8 9 10 11 12 13 14 15 16 17 18 19 20 21 22 23 24 25 26 27 28 29 30 31 32 33 34 35 36 37 38 39 40 41 42 43 44 45 46 47 48 49 50
000
ASUS41 KCLE 261412
RWRCLE
OHIO REGIONAL WEATHER ROUNDUP
NATIONAL WEATHER SERVICE WILMINGTON, OH
1000 AM EDT SAT MAY 26 2018

NOTE: "FAIR" INDICATES FEW OR NO CLOUDS BELOW 12,000 FEET WITH NO
SIGNIFICANT WEATHER AND/OR OBSTRUCTIONS TO VISIBILITY.

OHZ001>008-015>018-024>027-034-035-043-044-261500-
   NORTHWEST OHIO

CITY           SKY/WX    TMP DP  RH WIND       PRES   REMARKS
DEFIANCE       FAIR      74  67  78 S5        29.83F
FINDLAY        FAIR      78  64  61 SW5       29.84R
TOLEDO EXPRESS PTSUNNY   70  67  90 SW3       29.83S
TOLEDO EXEC    CLOUDY    72  65  78 N5        29.83F
LIMA           FAIR      77  66  68 SW8       29.86S
$$

OHZ009>014-019>023-028>033-038-089-261500-
   NORTHEAST OHIO

CITY           SKY/WX    TMP DP  RH WIND       PRES   REMARKS
CLE-HOPKINS    CLOUDY    74  61  63 SW6       29.87R
CLE-LAKEFRONT  PTSUNNY   76  59  55 S9        29.83R
CUY CO. ARPT   CLOUDY    77  63  61 SW8       29.86R
LORAIN-ELYRIA  PTSUNNY   70  58  65 NW8       29.86R
ASHTABULA      FAIR      73  62  68 S6        29.86S
AKRON-CANTON   CLOUDY    75  61  61 SW8       29.89R
WOOSTER        CLOUDY    72  61  68 SW6       29.89R
MANSFIELD      PTSUNNY   73  63  70 SW6       29.89R
YOUNGSTOWN     CLOUDY    74  61  63 SW5       29.88R
$$

OHZ042-051>053-060>062-070>072-077>081-261500-
  SOUTHWEST OHIO

CITY           SKY/WX    TMP DP  RH WIND       PRES   REMARKS
CINC-COVINGTON PTSUNNY   73  65  75 SW8       29.90R
CINC-LUNKEN    FAIR      75  69  81 S3        29.90R
HAMILTON       FAIR      76  68  76 W6        29.90R
DAYTON         PTSUNNY   75  67  76 SW8       29.89S
WRIGHT-PAT AFB CLOUDY    75  65  70 SW9       29.88R
DAYTON GENERAL PTSUNNY   76  64  66 SW7       29.89R
WILMINGTON     FAIR      74  67  78 SW10      29.90R
$$

OHZ036-037-039>041-045>050-054>059-063>069-073>076-082>088-261500-
  CENTRAL AND SOUTHEAST OHIO

CITY           SKY/WX    TMP DP  RH WIND       PRES   REMARKS
COLUMBUS       PTSUNNY   73  64  73 SE5       29.88R
OSU AIRPORT    FAIR      74  65  73 S7        29.88S
BOLTON FIELD   MOSUNNY   75  66  73 SW5       29.89S
RICKENBACK AFB FAIR      74  65  74 MISG      29.88S
NEWARK         LGT RAIN  71  67  87 NW6       29.89R
MARION         PTSUNNY   74  63  68 S7        29.88R
LANCASTER      CLOUDY    75  66  73 SW7       29.90R
ZANESVILLE     FAIR      78  68  71 S6        29.89S
NEW PHILLY     FAIR      77  66  68 VRB3      29.88F
$$



USA.gov is the U.S. government's official web portal to all federal, state and local government web resources and services.